Weather History for Chrysopouli, Greece

Change the Weather History Date:

Monday, November 12, 2012

  Actual Average Record
Temperature  
Mean Temperature 53 °F -  
Max Temperature 64 °F 58 °F 71 °F (2013)
Min Temperature 42 °F 44 °F 35 °F (2006)
Degree Days  
Heating Degree Days 12    
Growing Degree Days 3 (Base 50)    
Moisture  
Dew Point 45 °F    
Average Humidity 70    
Maximum Humidity 87    
Minimum Humidity 55    
Precipitation  
Precipitation 0.00 in - - ()
Sea Level Pressure  
Sea Level Pressure 30.29 in    
Wind  
Wind Speed 2 mph ()    
Max Wind Speed 6 mph    
Max Gust Speed -    
Visibility 6.2 miles    
Events      
Averages and records for this station are not official NWS values.
T = Trace of Precipitation, MM = Missing Value Source: Averaged Metar Reports

Daily Weather History Graph

Daily Weather History Graph

Search for Another Location

Airport:

Trip Planner

Search our weather history database for the weather conditions in past years. The results will help you decide how hot, cold, wet, or windy it might be!

Date:

Astronomy

Nov. 12, 2012 Rise Set
Actual Time 7:05 AM EET 5:05 PM EET
Civil Twilight 6:36 AM EET 5:34 PM EET
Nautical Twilight 6:03 AM EET 6:07 PM EET
Astronomical Twilight 5:30 AM EET 6:40 PM EET
Moon 5:07 AM EET (11/12) 3:57 PM EET (11/12)
Length of Visible Light 10h 58m
Length of Day
10h 00m
Waning Crescent, 3% of the Moon is Illuminated
Nov 12
Waning Crescent
Nov 14
New
Nov 20
First Quarter
Nov 28
Full
Dec 6
Last Quarter

Hourly Weather History & Observations

Time (EET) Temp. Windchill Dew Point Humidity Pressure Visibility Wind Dir Wind Speed Gust Speed Precip Events Conditions
5:50 AM 42.8 °F 40.1 °F 39.2 °F 87% 30.30 in - NE 4.6 mph - N/A   Clear
6:20 AM 42.8 °F - 39.2 °F 87% 30.30 in - Calm Calm - N/A   Clear
6:50 AM 42.8 °F 40.1 °F 37.4 °F 81% 30.30 in - East 4.6 mph - N/A   Clear
7:20 AM 42.8 °F - 37.4 °F 81% 30.30 in - Calm Calm - N/A   Clear
7:50 AM 44.6 °F - 39.2 °F 81% 30.30 in - Calm Calm - N/A   Clear
8:20 AM 46.4 °F - 39.2 °F 76% 30.33 in - Calm Calm - N/A   Clear
8:50 AM 48.2 °F - 42.8 °F 82% 30.33 in - Calm Calm - N/A   Clear
9:20 AM 50.0 °F - 44.6 °F 82% 30.33 in - Calm Calm - N/A   Clear
9:50 AM 53.6 °F - 46.4 °F 77% 30.33 in - ENE 4.6 mph - N/A   Clear
10:20 AM 55.4 °F - 46.4 °F 72% 30.33 in - ENE 4.6 mph - N/A   Clear
10:50 AM 59.0 °F - 46.4 °F 63% 30.33 in 6.2 mi Calm Calm - N/A   Scattered Clouds
11:20 AM 60.8 °F - 46.4 °F 59% 30.33 in 6.2 mi Calm Calm - N/A   Scattered Clouds
11:50 AM 62.6 °F - 48.2 °F 59% 30.30 in 6.2 mi SW 4.6 mph - N/A   Scattered Clouds
12:20 PM 62.6 °F - 48.2 °F 59% 30.30 in 6.2 mi SW 4.6 mph - N/A   Scattered Clouds
12:50 PM 64.4 °F - 48.2 °F 56% 30.27 in 6.2 mi South 4.6 mph - N/A   Mostly Cloudy
1:20 PM 64.4 °F - 48.2 °F 56% 30.27 in 6.2 mi South 5.8 mph - N/A   Mostly Cloudy
1:50 PM 62.6 °F - 48.2 °F 59% 30.27 in - South 4.6 mph - N/A   Clear
2:20 PM 62.6 °F - 48.2 °F 59% 30.27 in - Calm Calm - N/A   Clear
2:50 PM 62.6 °F - 48.2 °F 59% 30.27 in - Calm Calm - N/A   Clear
3:20 PM 62.6 °F - 48.2 °F 59% 30.27 in - Calm Calm - N/A   Clear
3:50 PM 62.6 °F - 46.4 °F 55% 30.27 in - Calm Calm - N/A   Clear
4:20 PM 60.8 °F - 46.4 °F 59% 30.27 in - Calm Calm - N/A   Clear
4:50 PM 60.8 °F - 50.0 °F 68% 30.27 in - Calm Calm - N/A   Clear
5:20 PM 59.0 °F - 50.0 °F 72% 30.24 in - Calm Calm - N/A   Clear
5:50 PM 55.4 °F - 46.4 °F 72% 30.27 in - Calm Calm - N/A   Clear
6:20 PM 55.4 °F - 46.4 °F 72% 30.27 in - Calm Calm - N/A   Clear
6:50 PM 51.8 °F - 46.4 °F 82% 30.27 in - Calm Calm - N/A   Clear
7:20 PM 51.8 °F - 46.4 °F 82% 30.27 in - NNE 4.6 mph - N/A   Clear
7:50 PM 50.0 °F - 46.4 °F 87% 30.27 in - NNE 4.6 mph - N/A   Clear